User: anonymous   Login
Location: Newark
(46.7000°N, 60.6000°W)
Time: 16:41:40
(UTC+00:00)
Language:

Tiros 1 - Orbit

View from above orbital plane
View from above orbital plane
View from above satellite
View from above satellite

Ground track
Ground track

The orbit data is extracted from the following two-line orbital elements,

1    29U 60002B   20294.70726287 -.00000122 +00000-0 +12921-4 0  9990
2    29 048.3797 077.4959 0023661 047.9070 312.3849 14.74377530237145
Epoch (UTC): 20 October 2020 16:58:27
Eccentricity: 0.0023661
inclination: 48.3797°
perigee height: 630 km
apogee height: 664 km
right ascension of ascending node: 77.4959°
argument of perigee: 47.9070°
revolutions per day: 14.74377530
mean anomaly at epoch: 312.3849°
orbit number at epoch: 23714

The dashed part of the orbit path shows where the satellite is in the earth's shadow,  

DLR